MONT JOLI A QUE. current weather conditions

sailwx.info

Wind from 070 at 6 knots

Air temperature -19.0° C
Visibility: greater than 1.7 NM
Dewpoint -22.0° C
Present weather: Light snow.

Last reported at 2020-Jan-19 08:00 UTC.
Time now 2020-Jan-19 09:50 UTC

Location: N 48°36' W 068°12'.
View on Google Maps.

See reports from other nearby stations

  
Tides and Currents Weather Stations Pressure Air Temp Water Temp Dewpoint Dewpoint Depression Visibility Wind Speed Wind Dir Waves Ship Positions
date/time (UTC)wind fromknots sea level pressurealtimeterstation pressurevisibilityair tempwater tempwave heightnotes
2020-Jan-19 08:00 070 6 1.7-19.0 Light snow.
2020-Jan-19 07:23 150 6 2.2-18.0 Light snow.
2020-Jan-19 07:08 140 6 5.2-18.0 Light snow.
2020-Jan-19 07:00 130 5 2.2-19.0 Light snow.
2020-Jan-19 06:38 110 5 1.7-19.0 Light snow.
2020-Jan-19 06:22 120 5 8.7-19.0 Light snow.
2020-Jan-19 06:00 100 4 13.0-19.0
2020-Jan-19 05:00 130 6 26.1-19.0
2020-Jan-19 04:00 140 7 26.1-19.0
2020-Jan-19 03:00 160 7 26.1-19.0
2020-Jan-19 02:00 150 6 26.1-19.0
2020-Jan-19 01:00 150 6 26.1-20.0
2020-Jan-19 00:32 160 8 26.1-20.0
2020-Jan-19 00:00 160 6 26.1-20.0 Light snow.
2020-Jan-18 23:00 150 5 13.0-20.0 Light snow.
2020-Jan-18 22:35 160 5 13.0-20.0 Light snow.
2020-Jan-18 22:00 140 5 13.0-20.0
2020-Jan-18 21:00 200 4 26.1-19.0
2020-Jan-18 20:00 200 6 26.1-19.0
2020-Jan-18 19:00 250 6 26.1-19.0
2020-Jan-18 18:00 260 8 26.1-20.0
2020-Jan-18 17:00 250 8 26.1-20.0
2020-Jan-18 16:00 270 8 26.1-20.0
2020-Jan-18 15:00 280 8 26.1-21.0
2020-Jan-18 14:00 300 13 26.1-21.0
2020-Jan-18 13:00 310 13 26.1-22.0
2020-Jan-18 12:00 310 13 26.1-22.0
2020-Jan-18 11:00 300 14 26.1-22.0
2020-Jan-18 10:00 310 17 26.1-21.0
2020-Jan-18 09:00 300 14 26.1-21.0
2020-Jan-18 08:00 290 13 gusting 19 26.1-21.0
2020-Jan-18 07:00 290 13 gusting 20 26.1-20.0
2020-Jan-18 06:00 290 13 gusting 20 26.1-20.0
2020-Jan-18 05:00 290 14 26.1-20.0
2020-Jan-18 04:00 290 17 26.1-19.0
2020-Jan-18 03:00 300 14 gusting 20 26.1-19.0
2020-Jan-18 02:00 320 17 26.1-18.0
2020-Jan-18 01:00 310 15 gusting 21 26.1-18.0
2020-Jan-18 00:00 310 13 26.1-18.0
2020-Jan-17 23:00 300 18 gusting 22 13.0-18.0
2020-Jan-17 22:00 300 17 13.0-18.0
2020-Jan-17 21:00 290 12 26.1-18.0
2020-Jan-17 20:00 290 13 26.1-18.0 Light low drifting snow.
2020-Jan-17 19:00 300 12 gusting 18 26.1-18.0 Light low drifting snow.
2020-Jan-17 18:00 300 13 gusting 19 26.1-19.0 Light low drifting snow.
2020-Jan-17 17:00 300 12 26.1-20.0 Light low drifting snow.
2020-Jan-17 16:00 310 12 26.1-20.0 Light low drifting snow.
2020-Jan-17 15:00 320 13 gusting 20 26.1-21.0 Light low drifting snow.
2020-Jan-17 14:00 320 18 gusting 24 26.1-21.0
2020-Jan-17 13:00 340 18 13.0-20.0
2020-Jan-17 12:00 340 18 gusting 24 13.0-19.0
2020-Jan-17 11:00 330 19 gusting 24 26.1-19.0
2020-Jan-17 10:00 320 18 gusting 24 26.1-18.0
2020-Jan-17 09:00 330 19 26.1-17.0